<?xml version="1.0"?>
<gpx xmlns="http://www.topografix.com/GPX/1/1" xmlns:xsi="http://www.w3.org/2001/XMLSchema-instance" version="1.1" creator="GPX RubyGem 1.0.0 -- http://dougfales.github.io/gpx/" xsi:schemaLocation="http://www.topografix.com/GPX/1/1 http://www.topografix.com/GPX/1/1/gpx.xsd">
  <metadata>
    <name/>
    <time>2026-05-09T23:07:33+00:00</time>
    <bound minlat="90.0" minlon="180.0" maxlat="-90.0" maxlon="-180.0"/>
  </metadata>
  <trk>
    <name/>
    <trkseg>
      <trkpt lat="51.199879" lon="8.572003">
        <time>1970-01-01T00:00:00+00:00</time>
        <ele>540.0</ele>
      </trkpt>
      <trkpt lat="51.19969" lon="8.571841">
        <time>1970-01-01T00:00:00+00:00</time>
        <ele>541.0</ele>
      </trkpt>
      <trkpt lat="51.199625" lon="8.571796">
        <time>1970-01-01T00:00:00+00:00</time>
        <ele>542.0</ele>
      </trkpt>
      <trkpt lat="51.199572" lon="8.571759">
        <time>1970-01-01T00:00:00+00:00</time>
        <ele>542.0</ele>
      </trkpt>
      <trkpt lat="51.199415" lon="8.571711">
        <time>1970-01-01T00:00:00+00:00</time>
        <ele>543.0</ele>
      </trkpt>
      <trkpt lat="51.19938" lon="8.571722">
        <time>1970-01-01T00:00:00+00:00</time>
        <ele>544.0</ele>
      </trkpt>
      <trkpt lat="51.199331" lon="8.571679">
        <time>1970-01-01T00:00:00+00:00</time>
        <ele>545.0</ele>
      </trkpt>
      <trkpt lat="51.198632" lon="8.571444">
        <time>1970-01-01T00:00:00+00:00</time>
        <ele>554.0</ele>
      </trkpt>
      <trkpt lat="51.198533" lon="8.571449">
        <time>1970-01-01T00:00:00+00:00</time>
        <ele>554.0</ele>
      </trkpt>
      <trkpt lat="51.198435" lon="8.571498">
        <time>1970-01-01T00:00:00+00:00</time>
        <ele>553.0</ele>
      </trkpt>
      <trkpt lat="51.198259" lon="8.571672">
        <time>1970-01-01T00:00:00+00:00</time>
        <ele>554.0</ele>
      </trkpt>
      <trkpt lat="51.198258" lon="8.571849">
        <time>1970-01-01T00:00:00+00:00</time>
        <ele>553.0</ele>
      </trkpt>
      <trkpt lat="51.198266" lon="8.571969">
        <time>1970-01-01T00:00:00+00:00</time>
        <ele>552.0</ele>
      </trkpt>
      <trkpt lat="51.198289" lon="8.57205">
        <time>1970-01-01T00:00:00+00:00</time>
        <ele>552.0</ele>
      </trkpt>
      <trkpt lat="51.198511" lon="8.572656">
        <time>1970-01-01T00:00:00+00:00</time>
        <ele>551.0</ele>
      </trkpt>
      <trkpt lat="51.19887" lon="8.573558">
        <time>1970-01-01T00:00:00+00:00</time>
        <ele>555.0</ele>
      </trkpt>
      <trkpt lat="51.198984" lon="8.573886">
        <time>1970-01-01T00:00:00+00:00</time>
        <ele>555.0</ele>
      </trkpt>
      <trkpt lat="51.19913" lon="8.574144">
        <time>1970-01-01T00:00:00+00:00</time>
        <ele>557.0</ele>
      </trkpt>
      <trkpt lat="51.199265" lon="8.574368">
        <time>1970-01-01T00:00:00+00:00</time>
        <ele>559.0</ele>
      </trkpt>
      <trkpt lat="51.199363" lon="8.574532">
        <time>1970-01-01T00:00:00+00:00</time>
        <ele>560.0</ele>
      </trkpt>
      <trkpt lat="51.199572" lon="8.574959">
        <time>1970-01-01T00:00:00+00:00</time>
        <ele>563.0</ele>
      </trkpt>
      <trkpt lat="51.199766" lon="8.575522">
        <time>1970-01-01T00:00:00+00:00</time>
        <ele>566.0</ele>
      </trkpt>
      <trkpt lat="51.200038" lon="8.576514">
        <time>1970-01-01T00:00:00+00:00</time>
        <ele>572.0</ele>
      </trkpt>
      <trkpt lat="51.200296" lon="8.577444">
        <time>1970-01-01T00:00:00+00:00</time>
        <ele>586.0</ele>
      </trkpt>
      <trkpt lat="51.200477" lon="8.577913">
        <time>1970-01-01T00:00:00+00:00</time>
        <ele>597.0</ele>
      </trkpt>
      <trkpt lat="51.200469" lon="8.578144">
        <time>1970-01-01T00:00:00+00:00</time>
        <ele>601.0</ele>
      </trkpt>
      <trkpt lat="51.200299" lon="8.579295">
        <time>1970-01-01T00:00:00+00:00</time>
        <ele>617.0</ele>
      </trkpt>
      <trkpt lat="51.200267" lon="8.58">
        <time>1970-01-01T00:00:00+00:00</time>
        <ele>633.0</ele>
      </trkpt>
      <trkpt lat="51.200319" lon="8.581019">
        <time>1970-01-01T00:00:00+00:00</time>
        <ele>653.0</ele>
      </trkpt>
      <trkpt lat="51.200428" lon="8.581545">
        <time>1970-01-01T00:00:00+00:00</time>
        <ele>660.0</ele>
      </trkpt>
      <trkpt lat="51.200566" lon="8.582481">
        <time>1970-01-01T00:00:00+00:00</time>
        <ele>674.0</ele>
      </trkpt>
      <trkpt lat="51.200637" lon="8.582886">
        <time>1970-01-01T00:00:00+00:00</time>
        <ele>679.0</ele>
      </trkpt>
      <trkpt lat="51.200676" lon="8.583242">
        <time>1970-01-01T00:00:00+00:00</time>
        <ele>689.0</ele>
      </trkpt>
      <trkpt lat="51.200832" lon="8.584127">
        <time>1970-01-01T00:00:00+00:00</time>
        <ele>708.0</ele>
      </trkpt>
      <trkpt lat="51.201054" lon="8.585115">
        <time>1970-01-01T00:00:00+00:00</time>
        <ele>718.0</ele>
      </trkpt>
      <trkpt lat="51.201044" lon="8.585342">
        <time>1970-01-01T00:00:00+00:00</time>
        <ele>718.0</ele>
      </trkpt>
      <trkpt lat="51.201069" lon="8.585649">
        <time>1970-01-01T00:00:00+00:00</time>
        <ele>717.0</ele>
      </trkpt>
      <trkpt lat="51.201081" lon="8.586459">
        <time>1970-01-01T00:00:00+00:00</time>
        <ele>723.0</ele>
      </trkpt>
      <trkpt lat="51.201175" lon="8.587038">
        <time>1970-01-01T00:00:00+00:00</time>
        <ele>733.0</ele>
      </trkpt>
      <trkpt lat="51.201195" lon="8.5875">
        <time>1970-01-01T00:00:00+00:00</time>
        <ele>737.0</ele>
      </trkpt>
      <trkpt lat="51.201161" lon="8.587929">
        <time>1970-01-01T00:00:00+00:00</time>
        <ele>739.0</ele>
      </trkpt>
      <trkpt lat="51.20116" lon="8.587938">
        <time>1970-01-01T00:00:00+00:00</time>
        <ele>739.0</ele>
      </trkpt>
      <trkpt lat="51.20116" lon="8.587938">
        <time>1970-01-01T00:00:00+00:00</time>
        <ele>739.0</ele>
      </trkpt>
      <trkpt lat="51.201161" lon="8.587929">
        <time>1970-01-01T00:00:00+00:00</time>
        <ele>739.0</ele>
      </trkpt>
      <trkpt lat="51.201195" lon="8.5875">
        <time>1970-01-01T00:00:00+00:00</time>
        <ele>737.0</ele>
      </trkpt>
      <trkpt lat="51.201175" lon="8.587038">
        <time>1970-01-01T00:00:00+00:00</time>
        <ele>733.0</ele>
      </trkpt>
      <trkpt lat="51.201081" lon="8.586459">
        <time>1970-01-01T00:00:00+00:00</time>
        <ele>723.0</ele>
      </trkpt>
      <trkpt lat="51.201069" lon="8.585649">
        <time>1970-01-01T00:00:00+00:00</time>
        <ele>717.0</ele>
      </trkpt>
      <trkpt lat="51.201044" lon="8.585342">
        <time>1970-01-01T00:00:00+00:00</time>
        <ele>718.0</ele>
      </trkpt>
      <trkpt lat="51.201054" lon="8.585115">
        <time>1970-01-01T00:00:00+00:00</time>
        <ele>718.0</ele>
      </trkpt>
      <trkpt lat="51.200832" lon="8.584127">
        <time>1970-01-01T00:00:00+00:00</time>
        <ele>708.0</ele>
      </trkpt>
      <trkpt lat="51.200676" lon="8.583242">
        <time>1970-01-01T00:00:00+00:00</time>
        <ele>689.0</ele>
      </trkpt>
      <trkpt lat="51.200637" lon="8.582886">
        <time>1970-01-01T00:00:00+00:00</time>
        <ele>679.0</ele>
      </trkpt>
      <trkpt lat="51.200566" lon="8.582481">
        <time>1970-01-01T00:00:00+00:00</time>
        <ele>674.0</ele>
      </trkpt>
      <trkpt lat="51.200428" lon="8.581545">
        <time>1970-01-01T00:00:00+00:00</time>
        <ele>660.0</ele>
      </trkpt>
      <trkpt lat="51.200319" lon="8.581019">
        <time>1970-01-01T00:00:00+00:00</time>
        <ele>653.0</ele>
      </trkpt>
      <trkpt lat="51.200267" lon="8.58">
        <time>1970-01-01T00:00:00+00:00</time>
        <ele>633.0</ele>
      </trkpt>
      <trkpt lat="51.200299" lon="8.579295">
        <time>1970-01-01T00:00:00+00:00</time>
        <ele>617.0</ele>
      </trkpt>
      <trkpt lat="51.200469" lon="8.578144">
        <time>1970-01-01T00:00:00+00:00</time>
        <ele>601.0</ele>
      </trkpt>
      <trkpt lat="51.200477" lon="8.577913">
        <time>1970-01-01T00:00:00+00:00</time>
        <ele>597.0</ele>
      </trkpt>
      <trkpt lat="51.200296" lon="8.577444">
        <time>1970-01-01T00:00:00+00:00</time>
        <ele>586.0</ele>
      </trkpt>
      <trkpt lat="51.200038" lon="8.576514">
        <time>1970-01-01T00:00:00+00:00</time>
        <ele>572.0</ele>
      </trkpt>
      <trkpt lat="51.199766" lon="8.575522">
        <time>1970-01-01T00:00:00+00:00</time>
        <ele>566.0</ele>
      </trkpt>
      <trkpt lat="51.199572" lon="8.574959">
        <time>1970-01-01T00:00:00+00:00</time>
        <ele>563.0</ele>
      </trkpt>
      <trkpt lat="51.199363" lon="8.574532">
        <time>1970-01-01T00:00:00+00:00</time>
        <ele>560.0</ele>
      </trkpt>
      <trkpt lat="51.199265" lon="8.574368">
        <time>1970-01-01T00:00:00+00:00</time>
        <ele>559.0</ele>
      </trkpt>
      <trkpt lat="51.19913" lon="8.574144">
        <time>1970-01-01T00:00:00+00:00</time>
        <ele>557.0</ele>
      </trkpt>
      <trkpt lat="51.198984" lon="8.573886">
        <time>1970-01-01T00:00:00+00:00</time>
        <ele>555.0</ele>
      </trkpt>
      <trkpt lat="51.19887" lon="8.573558">
        <time>1970-01-01T00:00:00+00:00</time>
        <ele>555.0</ele>
      </trkpt>
      <trkpt lat="51.198511" lon="8.572656">
        <time>1970-01-01T00:00:00+00:00</time>
        <ele>551.0</ele>
      </trkpt>
      <trkpt lat="51.198289" lon="8.57205">
        <time>1970-01-01T00:00:00+00:00</time>
        <ele>552.0</ele>
      </trkpt>
      <trkpt lat="51.198266" lon="8.571969">
        <time>1970-01-01T00:00:00+00:00</time>
        <ele>552.0</ele>
      </trkpt>
      <trkpt lat="51.198258" lon="8.571849">
        <time>1970-01-01T00:00:00+00:00</time>
        <ele>553.0</ele>
      </trkpt>
      <trkpt lat="51.198259" lon="8.571672">
        <time>1970-01-01T00:00:00+00:00</time>
        <ele>554.0</ele>
      </trkpt>
      <trkpt lat="51.198435" lon="8.571498">
        <time>1970-01-01T00:00:00+00:00</time>
        <ele>553.0</ele>
      </trkpt>
      <trkpt lat="51.198533" lon="8.571449">
        <time>1970-01-01T00:00:00+00:00</time>
        <ele>554.0</ele>
      </trkpt>
      <trkpt lat="51.198632" lon="8.571444">
        <time>1970-01-01T00:00:00+00:00</time>
        <ele>554.0</ele>
      </trkpt>
      <trkpt lat="51.199331" lon="8.571679">
        <time>1970-01-01T00:00:00+00:00</time>
        <ele>545.0</ele>
      </trkpt>
      <trkpt lat="51.19938" lon="8.571722">
        <time>1970-01-01T00:00:00+00:00</time>
        <ele>544.0</ele>
      </trkpt>
      <trkpt lat="51.199415" lon="8.571711">
        <time>1970-01-01T00:00:00+00:00</time>
        <ele>543.0</ele>
      </trkpt>
      <trkpt lat="51.199572" lon="8.571759">
        <time>1970-01-01T00:00:00+00:00</time>
        <ele>542.0</ele>
      </trkpt>
      <trkpt lat="51.199625" lon="8.571796">
        <time>1970-01-01T00:00:00+00:00</time>
        <ele>542.0</ele>
      </trkpt>
      <trkpt lat="51.19969" lon="8.571841">
        <time>1970-01-01T00:00:00+00:00</time>
        <ele>541.0</ele>
      </trkpt>
      <trkpt lat="51.199879" lon="8.572003">
        <time>1970-01-01T00:00:00+00:00</time>
        <ele>540.0</ele>
      </trkpt>
    </trkseg>
  </trk>
</gpx>
